Location: Champs
(48.8539°N, 2.6040°E)
Time: 10:11:34
(UTC+00:00)

USA 308 - Pass Details

Date: 06 June 2022
Orbit: 549 x 558 km, 54.0° (Epoch: 14 June)

Event Time Altitude Azimuth Distance (km) Brightness Sun altitude
Rises 20:29:53 0° 221° (SW) 2,712 6.3 -5.9°
Reaches altitude 10° 20:32:10 10° 215° (SW) 1,824 5.4 -6.1°
Maximum altitude 20:36:08 45° 142° (SE) 757 3.1 -6.6°
Drops below altitude 10° 20:40:13 10° 69° (ENE) 1,877 5.3 -7.1°
Sets 20:42:25 0° 64° (ENE) 2,740 6.2 -7.3°
